Temp
-11 -11 -11 -12 -12 -12 -12 -13 -13 -13 -14 -14 -14 -14 -14 -14 -15 -15 -15 -15 -15 -13 -13 -14 -13 -13 -15 -15 -14 -15 -16 -16 -17 -16 -16 -16 -16 -16 -16 -16 -16 -16 -16 -16 -16 -17 -17 -16 -16 -16 -15 -15 -14 -15
-12 -12 -13 -13 -13 -13 -13 -13 -14 -14 -14 -14 -14 -14 -15 -15 -15 -15 -15 -15 -14 -13 -13 -14 -14 -13 -13 -14 -14 -15 -16 -17 -17 -16 -16 -16 -16 -16 -16 -16 -16 -16 -16 -16 -17 -18 -17 -17 -17 -16 -16 -16 -15 -15
-13 -13 -13 -13 -13 -14 -14 -14 -14 -14 -14 -14 -14 -15 -15 -15 -15 -15 -14 -14 -14 -14 -14 -14 -14 -14 -14 -13 -15 -16 -17 -17 -16 -16 -16 -16 -16 -16 -16 -17 -16 -17 -17 -17 -17 -17 -17 -17 -16 -17 -16 -16 -16 -16
-14 -14 -14 -14 -14 -14 -14 -14 -15 -15 -15 -15 -15 -15 -14 -15 -14 -14 -14 -14 -14 -14 -14 -14 -14 -14 -14 -15 -16 -17 -16 -17 -16 -16 -16 -16 -16 -16 -16 -16 -17 -16 -17 -17 -17 -18 -17 -17 -17 -16 -16 -17 -17 -17
-15 -15 -14 -14 -14 -14 -14 -15 -15 -15 -15 -15 -15 -15 -14 -14 -14 -14 -14 -14 -14 -14 -14 -14 -14 -14 -15 -16 -17 -17 -17 -17 -17 -17 -16 -16 -16 -16 -16 -16 -17 -17 -17 -17 -18 -17 -18 -17 -17 -17 -17 -17 -17 -18
-15 -15 -15 -14 -14 -14 -14 -15 -15 -15 -16 -15 -15 -15 -15 -14 -14 -14 -14 -14 -14 -14 -14 -14 -14 -15 -16 -17 -17 -17 -17 -17 -17 -16 -16 -16 -16 -16 -16 -16 -16 -17 -17 -17 -18 -18 -18 -18 -18 -18 -18 -17 -18 -18
-15 -14 -15 -15 -15 -15 -15 -15 -15 -15 -15 -15 -15 -15 -14 -14 -14 -14 -14 -14 -14 -14 -15 -15 -16 -17 -17 -17 -17 -17 -17 -17 -17 -16 -16 -16 -16 -16 -16 -16 -17 -17 -17 -17 -18 -19 -19 -19 -19 -19 -18 -18 -18 -18
-15 -15 -15 -15 -15 -15 -15 -15 -15 -15 -16 -15 -15 -15 -15 -15 -15 -15 -15 -15 -15 -15 -16 -17 -17 -17 -17 -17 -17 -17 -17 -17 -16 -16 -16 -16 -16 -16 -16 -16 -17 -17 -17 -18 -19 -19 -19 -19 -19 -18 -17 -18 -18 -18
-15 -15 -15 -15 -15 -15 -15 -16 -16 -15 -15 -15 -15 -15 -15 -15 -15 -15 -15 -16 -16 -17 -17 -18 -18 -18 -18 -18 -17 -17 -17 -17 -16 -16 -16 -16 -16 -16 -17 -16 -17 -17 -17 -18 -18 -18 -18 -18 -18 -18 -18 -18 -18 -18
-16 -16 -16 -16 -16 -15 -15 -15 -15 -15 -15 -15 -15 -15 -16 -16 -16 -16 -16 -17 -17 -18 -19 -19 -18 -18 -18 -17 -17 -17 -17 -17 -17 -17 -17 -16 -16 -16 -16 -17 -17 -17 -17 -18 -18 -18 -17 -17 -18 -18 -19 -18 -18 -18
-16 -16 -16 -16 -16 -16 -17 -17 -17 -17 -17 -17 -17 -17 -17 -18 -18 -18 -18 -18 -18 -19 -19 -18 -18 -18 -18 -18 -18 -17 -17 -17 -17 -17 -17 -16 -17 -16 -16 -17 -17 -17 -17 -17 -17 -17 -17 -17 -17 -18 -19 -18 -18 -18
-16 -17 -17 -17 -17 -17 -17 -17 -17 -17 -17 -17 -17 -18 -18 -18 -18 -18 -19 -18 -18 -18 -18 -18 -18 -18 -18 -18 -18 -18 -18 -18 -17 -17 -17 -17 -17 -17 -16 -17 -17 -17 -17 -17 -17 -17 -17 -17 -17 -18 -18 -18 -18 -18
-17 -17 -17 -17 -17 -17 -17 -17 -18 -18 -18 -18 -18 -18 -18 -18 -18 -18 -18 -18 -18 -19 -19 -19 -19 -18 -18 -18 -18 -18 -18 -18 -18 -18 -17 -17 -17 -17 -17 -17 -17 -17 -17 -17 -17 -18 -17 -17 -17 -17 -18 -18 -19 -19
-18 -17 -17 -17 -18 -18 -18 -18 -18 -18 -18 -18 -18 -18 -18 -18 -18 -18 -18 -18 -18 -18 -18 -18 -18 -18 -18 -18 -18 -18 -18 -18 -17 -17 -18 -17 -18 -17 -17 -17 -17 -17 -17 -17 -18 -18 -18 -18 -17 -17 -18 -18 -19 -18
-18 -18 -18 -18 -18 -18 -18 -18 -18 -19 -18 -19 -19 -19 -19 -19 -19 -19 -19 -19 -19 -19 -19 -18 -19 -19 -18 -18 -18 -18 -18 -18 -17 -18 -18 -17 -17 -18 -17 -17 -17 -17 -17 -17 -17 -17 -18 -18 -18 -17 -17 -18 -18 -18
-18 -18 -18 -18 -18 -18 -18 -18 -18 -18 -19 -19 -19 -19 -19 -19 -19 -19 -19 -19 -19 -19 -19 -19 -19 -19 -19 -18 -18 -18 -18 -18 -18 -19 -18 -18 -18 -18 -18 -18 -18 -17 -18 -18 -17 -17 -17 -18 -18 -18 -17 -17 -17 -17
-18 -18 -18 -18 -18 -18 -18 -18 -18 -19 -19 -19 -19 -19 -20 -20 -20 -20 -20 -20 -20 -19 -20 -20 -20 -19 -19 -19 -19 -19 -18 -19 -18 -18 -18 -18 -18 -18 -18 -18 -18 -18 -18 -18 -18 -18 -18 -18 -18 -18 -18 -18 -17 -17
-18 -18 -18 -18 -18 -18 -18 -19 -19 -19 -19 -19 -19 -20 -20 -20 -20 -20 -20 -20 -20 -20 -20 -20 -20 -19 -19 -19 -19 -19 -19 -18 -18 -18 -18 -18 -18 -18 -18 -18 -19 -19 -18 -18 -18 -19 -18 -18 -18 -18 -18 -18 -18 -18
-18 -18 -18 -18 -18 -19 -19 -19 -19 -19 -19 -19 -20 -20 -20 -20 -20 -20 -21 -21 -21 -21 -20 -20 -20 -20 -20 -20 -20 -19 -19 -18 -18 -18 -18 -18 -18 -18 -19 -19 -19 -19 -19 -19 -19 -19 -19 -19 -19 -19 -19 -19 -19 -19
-18 -19 -19 -19 -19 -19 -19 -19 -19 -20 -20 -20 -20 -20 -20 -20 -20 -21 -21 -21 -21 -21 -21 -21 -20 -20 -20 -19 -19 -19 -19 -19 -18 -18 -19 -19 -19 -19 -19 -19 -19 -20 -20 -20 -20 -20 -20 -20 -20 -20 -20 -20 -20 -20
-19 -19 -19 -19 -19 -19 -20 -20 -20 -20 -20 -20 -20 -20 -21 -21 -21 -21 -21 -21 -21 -21 -21 -21 -22 -22 -21 -21 -21 -20 -20 -20 -19 -19 -20 -20 -20 -20 -20 -21 -21 -21 -21 -21 -22 -22 -22 -22 -22 -21 -21 -21 -21 -21
-19 -19 -19 -19 -19 -20 -20 -20 -20 -20 -20 -21 -21 -21 -21 -21 -21 -21 -21 -22 -22 -21 -21 -22 -22 -22 -21 -21 -21 -21 -21 -21 -21 -21 -21 -21 -21 -22 -22 -22 -22 -22 -22 -23 -23 -23 -23 -23 -23 -23 -22 -22 -22 -22
-19 -19 -19 -19 -19 -19 -20 -20 -20 -21 -21 -21 -21 -21 -21 -21 -22 -21 -21 -21 -21 -21 -21 -22 -22 -22 -22 -21 -21 -21 -21 -21 -21 -22 -22 -22 -22 -23 -23 -23 -24 -24 -23 -24 -24 -24 -24 -24 -24 -24 -23 -23 -23 -23
-19 -19 -19 -20 -20 -20 -20 -20 -21 -21 -21 -21 -21 -21 -21 -21 -21 -21 -21 -21 -21 -21 -21 -22 -22 -22 -22 -22 -22 -22 -22 -22 -22 -22 -22 -22 -23 -23 -23 -24 -24 -24 -24 -25 -24 -25 -25 -25 -25 -25 -24 -24 -24 -24
-19 -19 -20 -20 -20 -20 -20 -21 -21 -21 -21 -21 -21 -21 -21 -21 -21 -21 -21 -21 -21 -22 -22 -22 -22 -22 -22 -22 -22 -22 -22 -22 -22 -23 -23 -23 -23 -23 -24 -24 -24 -25 -25 -25 -26 -26 -26 -26 -26 -26 -26 -26 -25 -25
-19 -19 -20 -20 -20 -20 -20 -20 -21 -21 -21 -21 -21 -21 -21 -21 -21 -21 -21 -21 -21 -21 -21 -21 -22 -22 -22 -22 -22 -22 -22 -22 -23 -23 -23 -23 -24 -24 -24 -24 -25 -25 -25 -26 -26 -26 -26 -27 -27 -27 -27 -26 -26 -26
-19 -19 -20 -20 -20 -20 -20 -20 -20 -21 -21 -21 -21 -20 -21 -21 -21 -21 -21 -21 -21 -21 -21 -21 -21 -21 -22 -22 -22 -22 -22 -23 -23 -23 -23 -23 -24 -24 -24 -24 -25 -25 -26 -26 -26 -27 -27 -28 -28 -28 -28 -27 -27 -26
-19 -19 -19 -20 -20 -20 -20 -20 -20 -20 -21 -20 -20 -20 -20 -20 -20 -20 -20 -20 -20 -20 -21 -21 -21 -21 -21 -22 -22 -22 -22 -22 -23 -23 -23 -23 -24 -24 -24 -24 -25 -25 -26 -26 -26 -27 -27 -27 -28 -28 -28 -27 -27 -27
-19 -19 -19 -19 -19 -19 -19 -20 -20 -20 -20 -19 -19 -19 -19 -19 -19 -20 -20 -20 -20 -20 -20 -20 -21 -21 -21 -21 -21 -22 -22 -22 -22 -23 -23 -23 -23 -23 -24 -24 -24 -25 -25 -25 -26 -27 -27 -27 -27 -28 -27 -28 -27 -26
-19 -19 -19 -19 -19 -19 -19 -19 -19 -19 -19 -19 -19 -19 -19 -19 -19 -19 -19 -19 -19 -20 -20 -20 -20 -20 -21 -21 -21 -21 -21 -22 -22 -22 -22 -22 -23 -23 -23 -23 -24 -24 -24 -25 -25 -26 -26 -27 -27 -27 -26 -26 -26 -26
-19 -19 -19 -19 -19 -19 -19 -19 -19 -19 -19 -18 -18 -18 -18 -18 -18 -18 -19 -19 -19 -19 -19 -19 -20 -20 -20 -20 -20 -21 -21 -21 -21 -22 -22 -22 -22 -23 -23 -23 -23 -23 -24 -24 -24 -25 -25 -25 -26 -26 -26 -26 -26 -25
-18 -18 -18 -18 -18 -19 -19 -19 -19 -19 -19 -18 -18 -18 -18 -18 -18 -18 -18 -18 -18 -19 -19 -19 -19 -19 -19 -20 -20 -20 -20 -21 -21 -21 -21 -22 -22 -22 -22 -22 -23 -23 -23 -23 -24 -24 -24 -24 -24 -24 -25 -25 -24 -24
-18 -18 -18 -18 -18 -18 -18 -19 -19 -19 -19 -18 -18 -18 -18 -18 -18 -18 -18 -18 -18 -18 -18 -19 -19 -19 -19 -19 -19 -20 -20 -20 -20 -21 -21 -21 -21 -21 -22 -21 -22 -22 -22 -22 -23 -23 -23 -23 -23 -23 -23 -23 -23 -23
Height
5738 5734 5730 5727 5723 5719 5715 5712 5709 5707 5705 5702 5699 5697 5694 5691 5688 5687 5687 5687 5687 5688 5692 5693 5696 5698 5702 5705 5705 5711 5713 5716 5722 5726 5730 5734 5736 5736 5740 5742 5744 5748 5751 5753 5755 5756 5760 5756 5758 5760 5761 5762 5766 5768
5723 5719 5715 5711 5708 5705 5701 5698 5695 5693 5690 5688 5685 5683 5681 5679 5677 5674 5674 5674 5674 5677 5682 5685 5688 5690 5691 5694 5697 5701 5704 5711 5715 5719 5724 5726 5730 5731 5734 5736 5739 5742 5744 5746 5747 5744 5745 5746 5746 5748 5750 5750 5753 5755
5709 5705 5701 5697 5694 5690 5687 5684 5681 5678 5675 5673 5671 5669 5667 5665 5664 5663 5661 5660 5664 5667 5670 5675 5678 5682 5684 5687 5692 5697 5701 5705 5710 5714 5718 5721 5724 5726 5729 5731 5734 5734 5736 5737 5737 5736 5734 5734 5735 5735 5737 5738 5741 5744
5695 5691 5687 5683 5679 5676 5673 5670 5666 5663 5660 5658 5656 5654 5651 5651 5650 5648 5650 5651 5654 5658 5662 5667 5670 5673 5676 5680 5686 5690 5697 5701 5706 5709 5713 5716 5718 5722 5724 5726 5728 5727 5729 5727 5726 5724 5722 5721 5720 5721 5723 5725 5728 5731
5682 5679 5675 5670 5666 5662 5659 5656 5653 5650 5648 5645 5641 5639 5637 5639 5638 5636 5640 5642 5646 5651 5655 5659 5664 5666 5670 5676 5681 5687 5692 5697 5701 5704 5707 5710 5713 5717 5718 5720 5721 5720 5720 5717 5715 5712 5710 5706 5708 5708 5709 5712 5716 5719
5671 5666 5662 5657 5653 5649 5647 5643 5641 5638 5635 5632 5631 5630 5629 5629 5628 5626 5631 5636 5640 5644 5650 5653 5658 5661 5666 5672 5678 5683 5688 5693 5696 5699 5702 5706 5710 5711 5713 5714 5714 5713 5711 5708 5705 5702 5698 5695 5695 5695 5697 5701 5705 5708
5660 5655 5651 5647 5643 5639 5635 5632 5630 5627 5625 5624 5624 5624 5623 5623 5624 5625 5629 5634 5638 5642 5646 5649 5654 5658 5663 5669 5674 5679 5684 5688 5691 5694 5698 5701 5704 5705 5707 5708 5707 5706 5704 5700 5696 5692 5688 5686 5684 5684 5688 5692 5696 5699
5651 5647 5644 5640 5635 5632 5628 5625 5623 5623 5622 5622 5621 5619 5620 5621 5623 5626 5629 5633 5636 5640 5642 5646 5650 5657 5661 5666 5670 5675 5679 5683 5685 5690 5693 5696 5698 5699 5702 5701 5702 5700 5698 5694 5690 5686 5682 5679 5677 5678 5682 5684 5689 5693
5647 5643 5639 5635 5631 5628 5626 5624 5623 5622 5620 5620 5619 5619 5620 5622 5624 5626 5629 5631 5633 5638 5639 5644 5649 5654 5657 5661 5666 5671 5675 5678 5682 5685 5688 5691 5692 5695 5696 5696 5695 5695 5693 5689 5686 5682 5679 5677 5676 5677 5679 5681 5684 5688
5645 5640 5637 5634 5631 5628 5625 5623 5621 5620 5618 5618 5618 5619 5620 5622 5622 5625 5625 5628 5632 5635 5638 5645 5648 5652 5655 5658 5663 5668 5671 5674 5677 5680 5683 5685 5687 5688 5689 5690 5690 5690 5688 5686 5682 5679 5677 5675 5675 5675 5677 5678 5681 5685
5642 5638 5635 5632 5630 5628 5626 5624 5623 5622 5621 5621 5621 5621 5623 5624 5626 5627 5629 5632 5633 5636 5639 5643 5645 5649 5652 5656 5659 5663 5666 5669 5672 5676 5677 5679 5681 5681 5682 5684 5684 5684 5684 5682 5679 5677 5674 5673 5672 5671 5671 5671 5675 5679
5640 5637 5635 5633 5632 5630 5628 5626 5625 5625 5625 5625 5625 5625 5626 5627 5628 5630 5631 5633 5635 5637 5639 5640 5643 5645 5649 5652 5657 5660 5661 5665 5666 5670 5669 5673 5673 5674 5676 5678 5679 5679 5679 5678 5676 5674 5672 5671 5670 5669 5667 5666 5669 5674
5638 5637 5636 5634 5632 5631 5629 5628 5627 5626 5626 5626 5626 5627 5627 5628 5629 5630 5631 5632 5634 5635 5636 5638 5640 5642 5646 5648 5652 5655 5656 5659 5660 5662 5664 5666 5668 5667 5670 5672 5673 5674 5674 5673 5672 5671 5670 5669 5668 5667 5667 5666 5666 5669
5638 5636 5635 5633 5632 5630 5629 5627 5627 5626 5626 5626 5626 5626 5626 5627 5627 5628 5629 5630 5631 5632 5633 5635 5636 5638 5641 5644 5646 5649 5650 5652 5653 5656 5660 5659 5658 5661 5663 5664 5666 5667 5668 5668 5667 5667 5667 5667 5666 5665 5665 5666 5667 5668
5637 5635 5634 5632 5630 5629 5627 5626 5626 5625 5624 5624 5623 5623 5623 5623 5623 5624 5625 5626 5627 5628 5630 5631 5632 5634 5636 5638 5640 5642 5643 5645 5648 5653 5652 5650 5651 5653 5655 5657 5659 5660 5662 5662 5663 5662 5662 5663 5663 5663 5663 5664 5665 5668
5636 5634 5632 5631 5629 5628 5626 5625 5624 5623 5622 5621 5620 5619 5619 5619 5619 5619 5619 5620 5622 5623 5624 5626 5627 5629 5630 5632 5634 5635 5638 5640 5643 5644 5644 5645 5645 5646 5648 5649 5651 5652 5654 5656 5657 5657 5657 5658 5659 5660 5661 5661 5662 5664
5635 5634 5632 5631 5630 5628 5627 5625 5623 5622 5620 5619 5618 5616 5615 5615 5615 5615 5614 5615 5615 5617 5617 5618 5620 5623 5624 5624 5626 5628 5632 5634 5635 5635 5636 5637 5638 5638 5639 5641 5642 5644 5646 5648 5650 5651 5652 5652 5653 5655 5656 5657 5658 5659
5635 5634 5633 5632 5631 5629 5627 5625 5623 5621 5619 5617 5616 5614 5613 5612 5611 5611 5610 5610 5610 5610 5610 5611 5612 5614 5615 5617 5619 5621 5624 5626 5627 5628 5629 5629 5630 5631 5632 5633 5635 5636 5638 5639 5641 5643 5644 5645 5647 5648 5649 5650 5652 5653
5636 5635 5634 5633 5631 5629 5627 5625 5623 5620 5617 5616 5614 5613 5611 5610 5608 5607 5606 5605 5605 5605 5605 5605 5605 5606 5608 5609 5612 5614 5616 5617 5618 5619 5620 5620 5621 5622 5624 5625 5626 5628 5630 5630 5631 5633 5635 5636 5639 5640 5642 5643 5645 5647
5637 5636 5635 5633 5631 5629 5627 5624 5621 5618 5617 5615 5613 5611 5609 5608 5606 5604 5603 5602 5601 5601 5602 5602 5600 5600 5602 5604 5605 5606 5607 5609 5611 5611 5613 5614 5615 5616 5618 5619 5619 5619 5620 5621 5622 5624 5626 5627 5629 5631 5633 5634 5636 5638
5638 5636 5635 5633 5632 5629 5627 5624 5621 5618 5616 5614 5612 5610 5608 5607 5605 5604 5602 5601 5600 5600 5600 5600 5598 5598 5599 5600 5602 5602 5603 5605 5606 5607 5607 5608 5609 5610 5611 5612 5612 5612 5613 5613 5614 5615 5617 5620 5620 5621 5623 5625 5627 5630
5638 5637 5635 5634 5632 5630 5628 5625 5623 5620 5618 5615 5612 5611 5609 5607 5605 5604 5603 5602 5601 5601 5600 5600 5600 5600 5601 5601 5601 5602 5602 5603 5603 5604 5604 5605 5605 5606 5606 5606 5607 5607 5608 5608 5609 5609 5610 5611 5612 5613 5614 5615 5617 5620
5639 5638 5637 5635 5634 5632 5630 5626 5623 5621 5618 5616 5613 5612 5610 5609 5607 5606 5605 5603 5602 5601 5601 5601 5601 5601 5601 5601 5602 5602 5603 5603 5603 5603 5603 5603 5603 5603 5603 5602 5601 5601 5601 5601 5600 5600 5600 5601 5602 5603 5604 5604 5607 5609
5641 5640 5638 5637 5635 5633 5630 5627 5625 5622 5620 5618 5615 5614 5612 5611 5609 5608 5607 5606 5605 5604 5603 5603 5603 5603 5603 5603 5603 5603 5603 5603 5603 5603 5602 5601 5600 5599 5598 5596 5595 5594 5593 5592 5592 5591 5591 5591 5591 5592 5594 5596 5598 5601
5644 5643 5641 5638 5636 5634 5632 5629 5627 5625 5622 5620 5618 5616 5615 5614 5613 5612 5610 5609 5607 5606 5605 5605 5604 5604 5604 5604 5604 5604 5604 5603 5603 5602 5600 5599 5598 5596 5595 5593 5591 5589 5588 5586 5585 5584 5583 5583 5583 5584 5585 5587 5590 5594
5644 5644 5642 5640 5638 5635 5633 5631 5629 5627 5625 5623 5621 5620 5618 5617 5616 5615 5614 5612 5610 5609 5608 5607 5607 5607 5607 5606 5606 5606 5605 5604 5603 5602 5601 5599 5597 5595 5593 5591 5589 5587 5584 5582 5579 5578 5576 5575 5575 5575 5577 5579 5581 5585
5646 5645 5643 5641 5639 5637 5635 5633 5631 5629 5629 5628 5624 5622 5621 5621 5620 5619 5617 5616 5614 5613 5612 5611 5611 5611 5610 5610 5609 5608 5607 5606 5604 5603 5601 5599 5597 5594 5592 5590 5588 5585 5582 5579 5576 5574 5573 5570 5568 5568 5570 5572 5575 5579
5648 5646 5644 5643 5641 5639 5637 5636 5634 5632 5630 5628 5626 5626 5625 5624 5624 5622 5621 5619 5618 5617 5617 5616 5616 5615 5614 5613 5612 5610 5609 5607 5606 5604 5602 5600 5597 5595 5592 5589 5586 5583 5581 5578 5576 5573 5571 5570 5569 5568 5569 5570 5571 5576
5649 5648 5646 5645 5643 5642 5640 5639 5637 5635 5633 5631 5630 5629 5628 5627 5626 5625 5625 5624 5623 5622 5621 5621 5620 5619 5618 5617 5615 5614 5612 5610 5609 5607 5605 5602 5600 5597 5593 5590 5587 5585 5582 5580 5577 5575 5573 5572 5574 5572 5571 5572 5571 5574
5650 5649 5647 5646 5645 5644 5643 5641 5639 5637 5636 5635 5633 5632 5631 5631 5630 5629 5629 5628 5627 5626 5625 5625 5624 5623 5622 5621 5620 5618 5617 5615 5612 5611 5608 5605 5603 5600 5597 5594 5590 5588 5585 5583 5581 5579 5577 5576 5576 5574 5572 5577 5578 5577
5650 5648 5647 5646 5645 5645 5644 5643 5642 5641 5639 5638 5637 5636 5635 5634 5633 5633 5632 5632 5631 5630 5630 5629 5628 5627 5626 5625 5623 5622 5621 5619 5616 5614 5612 5610 5607 5605 5602 5599 5596 5594 5592 5589 5587 5586 5585 5583 5581 5580 5579 5581 5581 5583
5649 5648 5646 5646 5646 5646 5646 5645 5644 5643 5642 5641 5640 5639 5638 5637 5636 5636 5635 5635 5634 5634 5633 5633 5632 5631 5630 5629 5627 5625 5624 5622 5620 5618 5616 5615 5612 5610 5608 5605 5602 5601 5599 5596 5594 5592 5592 5591 5590 5589 5587 5587 5588 5589
5652 5650 5649 5648 5648 5648 5647 5647 5647 5646 5645 5644 5643 5642 5641 5640 5639 5639 5638 5637 5637 5636 5636 5635 5634 5634 5633 5632 5631 5629 5627 5626 5625 5623 5622 5620 5618 5617 5615 5613 5610 5609 5607 5604 5603 5602 5601 5600 5599 5598 5598 5597 5598 5599
Wind_Speed
52 50 51 53 52 49 46 44 43 42 43 44 44 43 42 40 36 38 37 38 41 41 32 25 31 34 32 33 37 31 32 21 22 24 24 24 24 23 24 23 21 20 19 21 25 26 25 38 43 46 46 43 43 44
53 53 51 49 48 46 45 44 44 45 45 46 44 43 44 41 36 34 34 40 33 33 29 33 40 35 41 37 36 31 26 22 24 23 22 24 23 22 20 22 21 20 20 21 25 27 32 33 37 37 36 38 45 47
50 49 48 46 45 44 44 45 46 45 44 43 43 41 44 42 35 38 38 35 32 33 39 33 30 30 34 29 22 25 22 22 20 20 22 21 21 21 21 24 24 25 26 28 31 33 35 37 37 37 41 41 43 48
46 44 43 44 44 43 44 43 43 41 41 41 42 46 44 37 30 31 30 26 27 28 32 33 33 34 30 28 26 22 20 21 21 22 22 21 21 20 22 22 22 29 25 29 31 35 40 40 42 41 41 43 43 43
40 42 42 43 42 41 39 38 39 36 37 41 39 33 30 23 26 30 27 22 23 29 28 26 23 25 23 25 25 22 21 21 22 21 19 20 21 19 21 21 22 25 24 28 32 34 33 38 37 37 37 41 42 40
40 38 39 39 38 37 38 35 33 37 36 32 27 23 21 23 25 20 21 21 19 19 18 22 21 24 27 28 24 21 22 23 21 19 19 18 18 21 18 19 20 22 23 26 28 28 30 32 33 32 33 37 37 38
36 36 31 28 29 31 28 27 25 24 19 13 13 17 19 20 8 9 12 12 16 18 21 20 25 28 27 25 24 24 24 23 21 21 20 20 19 18 17 17 18 19 21 24 24 24 24 25 27 25 27 32 34 35
27 24 22 29 27 20 19 14 13 13 12 9 9 6 12 10 7 8 5 6 10 18 22 28 29 27 27 26 25 25 24 22 23 22 19 20 18 20 18 19 17 19 19 20 19 20 18 18 14 15 18 26 35 34
19 24 22 19 13 12 12 10 8 8 10 11 6 4 3 0 4 6 9 12 14 20 28 27 25 25 27 26 28 26 24 26 25 24 23 21 20 17 20 19 19 19 17 18 17 16 12 10 6 12 16 16 28 34
18 17 14 14 12 12 12 11 11 11 9 6 2 2 2 3 6 7 10 13 22 28 24 21 23 22 23 26 28 27 25 27 26 27 24 23 21 22 20 19 19 18 16 16 15 13 12 11 11 13 17 24 25 26
17 18 13 10 11 12 12 12 12 12 12 12 10 6 7 7 9 12 12 11 15 13 14 17 21 22 24 23 28 28 25 26 27 27 26 23 22 25 22 19 19 18 16 15 14 14 12 16 15 14 16 20 28 29
13 8 7 7 7 8 9 9 8 7 7 6 5 5 5 5 4 5 6 8 9 11 14 17 19 21 21 23 21 23 24 24 26 24 27 23 24 24 23 21 19 19 17 15 14 12 12 12 13 13 11 13 27 23
5 4 5 7 8 8 8 8 7 6 5 4 3 2 1 2 3 5 7 8 9 10 12 15 17 18 18 21 21 21 23 26 26 25 25 23 24 27 24 24 21 20 18 18 15 15 12 11 12 13 9 6 13 19
3 3 6 8 8 8 8 7 7 6 5 5 5 5 6 5 5 6 7 9 11 12 12 14 16 17 16 17 19 18 22 23 25 24 14 22 26 27 25 25 23 21 19 18 17 17 14 12 12 11 13 10 9 12
4 6 7 8 9 9 8 7 7 6 6 7 10 10 9 10 10 12 12 12 13 13 14 15 17 16 15 17 17 20 23 23 21 15 19 27 30 28 24 25 22 22 21 20 17 17 17 15 14 12 10 10 13 16
5 7 7 7 8 7 7 7 6 5 6 7 8 10 9 10 12 13 15 17 16 16 16 18 18 18 19 21 22 22 23 18 17 19 23 25 26 27 26 24 23 25 24 22 20 19 18 18 18 17 14 12 13 12
5 4 6 8 9 9 9 8 6 6 7 7 8 8 7 8 9 12 17 16 15 22 22 25 24 23 27 24 27 24 21 20 19 19 18 16 16 21 24 25 26 28 26 26 24 21 22 21 19 20 22 22 20 17
4 6 7 7 9 9 9 9 9 9 7 6 6 6 6 8 9 12 12 13 14 16 18 18 28 31 29 27 24 18 20 21 20 20 20 20 16 15 19 21 26 26 26 26 27 26 24 25 24 24 25 24 26 26
5 5 6 8 9 10 10 11 10 8 7 6 6 5 4 6 7 6 8 8 11 12 11 14 17 20 23 27 32 25 25 25 23 22 21 21 20 16 16 19 23 24 27 26 28 29 27 26 26 25 25 26 28 29
4 5 6 9 12 10 11 12 12 9 6 6 7 7 7 7 7 6 5 6 7 9 8 5 7 6 16 19 23 28 27 25 22 19 16 16 19 23 26 24 24 25 27 28 29 28 27 28 27 27 28 28 29 29
8 8 8 9 9 11 14 15 12 10 9 8 8 7 7 6 5 4 3 1 1 1 2 3 6 6 7 7 5 4 6 9 12 18 22 17 17 19 20 15 13 16 19 19 16 15 19 24 26 28 28 28 29 30
6 8 8 8 12 13 12 14 13 13 11 12 10 9 8 7 6 6 5 4 1 1 1 0 2 2 2 2 3 5 6 4 5 4 3 3 6 9 12 13 19 18 19 18 21 25 26 24 25 26 28 30 29 30
7 8 8 9 10 13 13 13 12 12 12 12 11 11 10 8 7 7 6 5 5 4 4 5 5 4 4 3 3 2 1 1 1 2 4 6 7 11 17 20 20 23 26 26 25 26 26 26 26 25 25 27 30 29
7 8 9 8 9 12 14 13 10 9 12 13 13 11 12 9 8 8 8 7 6 5 5 5 4 4 3 2 2 2 1 1 2 3 4 5 7 10 12 15 17 19 20 22 21 23 24 24 25 27 26 24 25 27
7 8 8 10 11 11 11 13 15 14 15 12 12 12 11 10 10 9 8 8 7 7 7 6 5 5 5 4 4 3 2 2 2 3 4 5 6 7 8 10 10 12 14 16 17 19 19 20 20 21 24 25 25 24
8 8 9 10 11 13 16 17 15 15 13 14 12 12 11 11 11 9 8 8 9 10 10 9 7 7 6 5 5 4 3 3 3 4 4 5 6 6 7 8 9 9 9 9 9 11 11 13 16 18 19 22 26 26
6 7 9 12 12 13 14 15 15 15 15 12 10 10 11 9 8 8 8 9 10 11 12 12 11 10 11 10 10 10 9 9 9 9 9 10 10 10 9 8 7 7 8 8 7 3 5 6 4 10 16 19 19 23
8 9 11 11 11 12 12 12 13 13 12 11 11 10 9 8 6 7 9 10 11 12 13 13 13 13 13 12 12 11 11 11 11 10 10 10 11 10 11 11 11 10 8 9 9 9 5 5 6 8 8 3 16 20
6 7 8 9 9 9 10 10 11 11 11 11 12 11 10 10 9 10 11 10 11 12 13 13 14 15 15 15 15 14 14 14 13 13 12 13 13 13 13 13 12 12 12 14 16 14 13 11 5 8 9 4 7 15
5 6 6 7 8 8 9 10 10 11 11 11 11 11 11 11 11 11 10 11 11 12 13 13 14 14 14 15 15 15 14 14 14 15 15 16 17 18 18 19 19 19 18 14 13 16 18 17 18 20 11 14 6 14
2 2 4 6 7 7 9 9 9 10 11 10 11 11 10 9 10 10 9 9 10 10 10 11 12 12 12 13 14 15 15 15 15 15 16 16 16 17 18 19 20 21 22 22 17 14 15 19 18 17 15 14 16 19
20 15 5 7 7 8 8 9 10 10 10 10 10 10 10 9 9 8 7 7 7 8 8 9 9 10 10 11 12 13 14 15 15 15 16 16 17 18 18 19 22 21 20 22 23 21 19 18 18 23 24 24 25 25
13 14 13 8 8 9 7 8 9 11 10 10 11 10 9 9 8 7 7 7 6 6 6 6 8 8 8 8 8 9 11 12 13 14 15 16 17 18 20 21 23 22 23 24 24 25 26 26 26 25 25 25 27 28
Wind_Direction
291 292 293 293 292 291 291 288 286 285 283 287 289 290 292 292 288 277 269 273 272 250 255 238 237 247 221 227 238 230 229 222 219 221 222 223 220 241 235 237 241 231 234 240 241 240 240 245 246 246 250 255 252 251
292 292 291 291 291 290 288 286 284 282 283 284 285 285 288 287 289 282 276 274 277 263 252 242 253 250 236 228 240 242 213 202 217 220 224 228 227 240 239 230 218 228 236 240 251 240 257 259 258 254 245 247 246 247
290 291 291 290 289 288 288 287 286 286 285 284 281 282 285 283 282 282 280 264 260 267 245 254 241 251 232 239 247 218 191 206 217 217 219 225 232 226 222 229 234 247 255 262 263 260 261 260 261 261 253 251 250 244
292 292 290 290 290 289 289 288 288 286 286 282 282 282 280 280 274 270 278 262 253 248 241 243 251 250 239 228 212 188 196 208 208 216 226 227 217 221 230 243 249 259 265 268 268 266 267 264 261 260 251 247 245 245
294 295 295 293 290 290 288 288 289 284 283 291 287 285 276 264 269 271 258 247 242 234 238 238 235 231 215 197 187 191 201 203 212 223 223 212 220 228 241 248 256 269 277 279 279 275 273 270 265 258 250 243 240 241
298 298 298 296 292 289 286 284 286 287 289 286 280 284 257 268 277 241 220 214 219 232 226 227 233 214 186 186 191 198 201 207 216 214 209 213 225 232 241 253 264 273 277 284 285 285 280 270 263 259 248 238 235 235
304 302 300 298 301 298 297 294 297 296 289 270 264 275 266 255 217 191 182 203 216 214 216 221 204 188 183 193 197 200 205 212 213 207 209 215 223 233 243 254 262 278 286 295 297 295 278 273 271 250 235 234 230 228
313 308 297 308 305 308 314 311 304 291 283 290 271 324 224 223 174 165 196 245 257 227 217 188 186 184 193 201 201 200 207 212 203 201 209 219 227 239 246 256 263 275 293 298 303 299 283 277 263 224 231 234 227 228
325 324 321 317 313 327 333 333 324 315 323 329 303 284 220 192 240 252 261 247 226 204 192 176 182 197 201 202 202 206 209 209 199 208 220 227 236 245 246 257 266 274 294 304 313 308 288 275 263 240 233 236 229 231
337 330 328 336 331 335 342 340 337 335 347 11 40 133 231 259 266 256 219 194 182 183 171 185 201 202 204 206 205 211 216 215 212 219 227 235 244 248 251 256 261 269 284 301 318 315 285 280 280 267 251 239 229 226
340 341 336 8 29 36 45 47 49 50 52 53 57 86 97 127 146 155 170 179 181 171 187 208 212 211 216 214 215 217 222 226 229 232 241 242 245 247 251 252 258 265 271 286 309 320 296 278 281 271 268 244 232 235
345 359 38 35 30 27 26 28 35 39 43 57 69 84 98 113 143 176 188 202 205 215 222 222 218 219 219 225 227 228 233 236 239 240 245 243 243 251 250 249 253 259 265 272 286 305 309 289 279 284 283 256 230 235
343 356 12 9 4 4 10 12 9 5 1 4 13 352 281 222 203 197 198 199 207 210 217 220 223 225 222 230 231 232 237 237 241 242 243 247 251 253 255 253 252 255 260 265 272 279 291 296 288 280 276 241 224 222
358 340 348 349 344 346 351 351 341 332 327 311 301 285 274 267 253 245 235 227 221 218 219 222 227 231 231 234 232 231 237 240 240 247 245 241 249 253 253 250 249 250 250 258 265 263 266 278 282 281 264 247 215 217
335 341 342 342 339 338 344 341 328 321 310 293 286 286 277 270 260 255 248 238 237 226 221 227 229 225 226 227 226 228 237 238 240 242 233 238 246 251 251 248 242 244 245 251 256 259 252 257 266 274 269 261 240 226
341 343 353 359 355 353 353 349 350 325 316 308 297 292 281 270 263 259 255 245 243 239 233 230 225 221 222 225 228 231 235 238 242 232 231 245 260 261 251 248 243 242 241 248 253 248 246 248 250 256 261 262 257 251
352 17 37 34 37 32 23 13 357 337 322 310 301 298 289 274 264 253 262 256 246 228 229 236 231 234 232 252 234 232 239 253 257 251 253 263 281 284 253 247 246 242 239 243 250 254 247 243 244 247 250 254 256 254
78 73 56 35 23 14 7 6 357 356 353 345 330 321 316 296 283 273 269 263 258 249 246 249 243 238 247 255 259 246 244 249 255 258 259 271 274 281 266 251 243 240 240 247 253 255 255 250 246 253 251 247 251 253
86 41 31 26 18 10 1 358 354 348 340 346 342 337 322 321 316 310 292 277 262 253 253 250 246 241 243 249 253 247 253 250 261 272 263 262 264 265 275 267 247 253 254 252 251 254 251 247 248 252 250 248 249 249
32 40 39 14 4 2 5 359 348 344 349 1 352 345 341 333 328 323 305 282 266 241 242 238 139 209 237 249 251 252 255 256 254 244 233 247 244 245 250 249 241 238 238 235 234 241 247 248 248 246 246 245 243 244
36 23 6 10 19 22 14 19 30 31 20 6 8 7 1 357 4 12 354 24 31 144 212 324 29 72 121 132 131 150 186 204 213 211 197 192 200 216 224 231 235 239 241 243 259 256 250 244 241 242 242 240 241 245
45 24 32 37 37 20 17 18 24 31 28 25 21 22 23 22 18 30 41 46 43 205 218 201 119 151 187 223 242 255 274 291 303 287 269 262 240 235 234 254 255 255 259 265 267 260 268 266 258 251 252 251 249 244
36 36 41 39 33 24 22 21 23 26 34 38 40 37 29 29 39 42 51 60 69 80 88 88 93 96 94 104 118 118 145 176 238 300 306 305 287 245 256 269 264 258 264 266 268 266 263 260 252 248 246 251 253 253
48 54 39 32 24 23 19 23 23 38 41 44 47 43 31 42 50 52 54 59 66 71 77 83 90 97 102 100 97 113 119 144 284 292 295 302 297 291 285 280 277 277 276 274 270 267 265 261 257 250 245 244 245 245
64 56 45 38 32 27 28 35 42 47 42 43 51 48 46 53 55 55 56 55 57 64 72 83 99 102 100 98 103 94 59 4 331 316 316 320 321 317 308 298 291 283 280 274 269 264 259 257 254 248 240 237 237 233
68 53 42 37 39 39 36 38 33 42 41 45 62 70 67 58 47 46 49 53 60 64 67 72 84 94 98 95 85 73 66 49 37 28 13 359 345 332 322 320 323 319 310 301 280 266 259 256 250 241 236 229 224 224
54 59 50 40 38 36 34 34 37 43 43 16 51 60 61 56 46 47 57 67 68 69 70 74 80 88 88 87 83 76 64 53 46 39 32 26 15 7 2 349 322 336 345 352 359 301 265 298 254 227 221 220 218 218
45 39 41 39 33 34 33 34 36 39 45 44 57 63 74 77 67 68 74 76 76 78 77 77 77 75 73 70 66 63 58 51 44 38 37 35 32 27 18 13 9 8 23 31 34 47 57 69 50 75 107 175 212 209
47 42 36 35 38 43 40 42 45 49 54 58 65 69 72 75 79 81 80 80 78 78 78 77 76 75 74 71 67 60 59 58 52 47 47 45 45 45 40 37 33 27 24 37 51 53 56 78 120 109 128 136 174 185
43 38 35 31 40 59 53 46 49 54 58 63 66 72 74 75 76 78 79 78 76 75 76 79 77 74 70 65 61 57 55 53 56 54 53 54 57 58 61 59 59 59 54 44 46 53 56 65 88 88 52 21 122 149
336 9 35 45 56 68 64 58 54 56 58 61 68 72 74 74 73 72 69 69 76 80 78 75 75 71 65 61 58 57 53 55 56 54 55 54 55 56 59 60 61 61 59 55 53 57 58 55 71 89 110 136 128 131
38 53 54 73 73 69 83 67 63 59 57 56 64 73 77 75 74 73 76 79 82 86 78 77 75 71 61 55 53 52 51 51 52 54 57 57 57 59 61 65 66 64 65 68 64 63 65 74 79 82 90 99 107 112
45 38 39 48 74 65 89 74 67 64 63 57 55 61 72 76 77 73 72 75 77 80 74 67 65 60 52 48 47 46 51 56 56 60 63 64 65 67 70 72 75 75 75 76 76 77 79 83 88 93 95 97 100 103